STARLINK-1653, 46352

Orbit data source: Space-Track

STARLINK-1653, 46352 is a payload satellite owned by SpaceX/Seattle (US) in LEO that was launched on Thu, 03 Sep 2020 UTC via an FALCON 9 launch vehicle from the Air Force Eastern Test Range (AFETR). Payload-class satellites include a variety of spacecraft equipped with specific instruments for various scientific and technological missions. These include communications satellites like Starlink; space stations such as the ISS; scientific satellites like the Hubble; Earth observation satellites from companies like Planet Labs, Umbra, and HawkEye 360; GPS; miniature CubeSats for education and research; and military/defense satellites.

Loading next visibility...
Identifier
46352, 2020-062AD
Orbit
LEO
Country
Flag of USUS
Related business
Manufacturer
SpaceX/Seattle
Mission
Partially operational Commercial Communications
Bus & Motor
STARLINK, Unknown motor
Mass
260 kg wet, ~248 kg dry
Launch date (UTC)
2020-09-03 (5 years ago)
Launch vehicle
FALCON 9
Launch site
Air Force Eastern Test Range (AFETR)
Object type
Payload
Rocket body
Debris
Shape & HBR
Box + 1 Pan, 10.1 m
Radar Cross Section
13.562 m², Large (>1 m²)

Expand to show TLE details & history
Last TLE update: 11 hours ago

TLE from 11 hours ago
0 STARLINK-1653
1 46352U 20062AD  25304.05841272  .00023996  00000-0  85528-3 0  9993
2 46352  53.0519 216.6878 0001843 103.3588 256.7616 15.28810553285081
Epoch: 2025-10-31T01:24Z
TLE epoch observation values (Epoch: 2025-10-31T01:24:06.859Z)
Latitude
-0.00002°
Longitude
156.05091°
Altitude
480.544 km
Speed
7.626 km/s
True Right ascension
14h 26m 45s
True Declination
0° 00' 00"
Sunlit
Object was in daylight at epoch
Visualization orbit readout
Latitude
Unknown
Longitude
Unknown
Altitude
Unknown
Speed
Unknown
Apparent Right ascension
Unknown
Apparent Declination
Unknown
Sunlit
N/A
Visualization observer readout
Local Sidereal Time
07:41:44
Azimuth
Unknown
Elevation
Unknown
Doppler factor
Unknown
Orbital elements
Apogee altitude
480.904 km
Perigee altitude
478.377 km
Semi-major axis
6,857.778 km
Eccentricity
0.00018
Inclination
53.0519°
RAAN
216.6878°
Arg. of periapsis
103.3588°
True anomaly
256.74104°
Mean anomaly
256.7616°
Eccentric anomaly
256.75132°
Mean motion
3.8218 °/min
Orbital period
94.2 mins
BSTAR
0.00085528
Loading maneuver chart data...
Computing Atmospheric mass density...

Documentation

Showing up to 5 results
|